Regional Weather Roundup
Issued by NWS

Home | Current Version | Previous Version | Text Only | Print | Product List | Glossary Off
Versions: 1 2 3 4 5 6 7 8 9 10 11 12 13 14 15 16 17 18 19 20 21 22 23 24 25 26 27 28 29 30 31 32 33 34 35 36 37 38 39 40 41 42 43 44 45 46 47 48 49 50

000
ASUS43 KMPX 101501
RWRMN
WEATHER ROUNDUP FOR MINNESOTA
NATIONAL WEATHER SERVICE TWIN CITIES/CHANHASSEN MN
900 AM CST SUN DEC 10 2017


NOTE: "FAIR" INDICATES FEW OR NO CLOUDS BELOW 12,000 FEET WITH NO
SIGNIFICANT WEATHER AND/OR OBSTRUCTIONS TO VISIBILITY. N/A MEANS
CURRENT SKY AND/OR WEATHER CONDITIONS ARE NOT AVAILABLE.

MNZ060>063-068>070-101600-
   Twin Cities Metro

CITY           SKY/WX    TMP DP  RH WIND       PRES   REMARKS
TWIN CITIES    CLOUDY    27  22  81 NW13      29.96R WCI  16
ST PAUL        CLOUDY    26  21  81 NW8       29.97R WCI  18
CRYSTAL        CLOUDY    26  19  74 NW7       29.95R WCI  18
BLAINE         CLOUDY    27  23  86 NW9       29.95R WCI  17
LAKEVILLE      CLOUDY    25  21  86 NW6       29.93R WCI  18
EDEN PRAIRIE   CLOUDY    28  22  78 NW10      29.95R WCI  19
SOUTH ST PAUL  CLOUDY    27  21  80 N6        29.95R WCI  20
LAKE ELMO      CLOUDY    27  21  80 NW6       29.95R WCI  20
$$
MNZ001>005-007-008-013>017-022>024-027-028-101600-
   Northwest Minnesota

CITY           SKY/WX    TMP DP  RH WIND       PRES   REMARKS
BEMIDJI        CLOUDY    20  17  87 NW12      29.97R WCI   8
HALLOCK        CLOUDY    21  18  86 N6        30.02R WCI  14
ROSEAU         CLOUDY    19  16  86 N5        30.01R WCI  13
WARROAD        FLURRIES  18  12  79 NW3       30.01R
CROOKSTON      CLOUDY    21  18  86 N7        30.03R WCI  13
FOSSTON        CLOUDY    18  16  93 NW7       29.99S WCI   8
DETROIT LAKES  CLOUDY    23  21  93 N7        29.99S WCI  15
MOORHEAD       CLOUDY    18  14  86 CALM      30.03R
PARK RAPIDS    CLOUDY    22  18  85 NW9       29.95R WCI  12
MAHNOMEN       CLOUDY    20  18  91 NW8       29.99S WCI  11
$$
MNZ006-009>011-018-025>026-101600-
   North Central Minnesota

CITY           SKY/WX    TMP DP  RH WIND       PRES   REMARKS
BAUDETTE       CLOUDY    16  12  84 N6        29.99R WCI   7
FLAG ISLAND    CLOUDY    16  10  79 N7        30.00R WCI   6
INTL FALLS     CLOUDY    15   9  76 NW6       29.97R HAZE    WCI   6
WASKISH        CLOUDY    18  16  93 N6        29.98R WCI   9
BIG FORK       CLOUDY    18  14  86 CALM      29.94R
GRAND RAPIDS   CLOUDY    19  15  84 N13       29.95R WCI   6
ORR            FLURRIES  12   7  79 CALM      29.93R
COOK           LGT SNOW  14  10  85 NW5       29.95R WCI   6
WALKER         CLOUDY    21  17  84 NW10      29.96R WCI   9
$$
MNZ012-019>021-037-101600-
   Northeast Minnesota

CITY           SKY/WX    TMP DP  RH WIND       PRES   REMARKS
DULUTH         CLOUDY    18  14  84 N8        29.89R WCI   8
ELY            FLURRIES  12   9  85 NW6       29.91R WCI   3
HIBBING        CLOUDY    16  12  84 N13       29.93R WCI   2
EVELETH        LGT SNOW  17  12  78 NW7       29.93R WCI   8
DULUTH HARBOR  CLOUDY    25  18  74 N10       29.95R WCI  15
TWO HARBORS    CLOUDY    21  14  73 N7        29.89R WCI  13
G MARAIS ARPRT LGT SNOW  10   3  72 NW6       29.84R WCI   1
$$
MNZ029>031-032-039>041-046>048-054>057-064-101600-
   West Central Minnesota

CITY           SKY/WX    TMP DP  RH WIND       PRES   REMARKS
FERGUS FALLS   CLOUDY    19  18  93 N5        30.03S WCI  13
MORRIS         CLOUDY    25  19  80 N12       30.00R WCI  14
ALEXANDRIA     CLOUDY    24  20  84 N12       29.98R WCI  13
ELBOW LAKE     FAIR      20  18  92 NW9       30.00R WCI  10
WADENA         CLOUDY    21  18  86 NW9       29.97R WCI  11
GLENWOOD       CLOUDY    25  21  86 NW12      29.99R WCI  14
BENSON         CLOUDY    25  19  80 N13       30.02R WCI  13
ORTONVILLE     CLOUDY    27  21  80 N7        30.02R WCI  19
MADISON        CLEAR     30  25  80 NW8       30.02S WCI  23
WILLMAR        FAIR      27  21  80 NW10      30.00R WCI  17
$$
MNZ033>034-036-042>043-049>051-058-059-101600-
   Central Minnesota

CITY           SKY/WX    TMP DP  RH WIND       PRES   REMARKS
ST CLOUD       CLOUDY    26  21  81 NW13      29.95R WCI  15
SAUK CENTRE    CLOUDY    24  20  83 NW12      29.97R WCI  13
PAYNESVILLE    CLOUDY    26  23  88 NW10      29.98R WCI  16
AITKIN         CLOUDY    21  16  79 NW9       29.93R WCI  11
PINE RIVER     CLOUDY    21  16  79 N9        29.99R WCI  11
BRAINERD       CLOUDY    24  18  77 NW9       29.95R WCI  14
STAPLES        CLOUDY    23  18  80 NW9       29.97R WCI  13
LONG PRAIRIE   CLOUDY    25  21  86 W12       29.97R WCI  14
LITTLE FALLS   CLOUDY    27  18  69 NW5       29.97R WCI  21
LITCHFIELD     CLOUDY    27  23  86 NW10G16   29.97S WCI  17
BUFFALO        CLOUDY    27  21  80 NW7       29.97R WCI  19
MAPLE LAKE     CLOUDY    28  24  84 NW7       29.97R WCI  21
HUTCHINSON     CLOUDY    28  23  83 NW9       29.97S WCI  19
$$
MNZ037-044-045-052-053-101600-
   East Central Minnesota

CITY           SKY/WX    TMP DP  RH WIND       PRES   REMARKS
PRINCETON      CLOUDY    27  21  80 NW7       29.95R WCI  19
MORA           CLOUDY    27  21  80 N7        29.95R WCI  19
CAMBRIDGE      CLOUDY    28  19  69 NW6       29.95R WCI  22
RUSH CITY      CLOUDY    25  20  79 NW6       29.94R WCI  18
MOOSE LAKE     CLOUDY    23  16  74 N6        29.92R WCI  16
HINCKLEY       CLOUDY    27  19  74 NW8       29.93R WCI  18
CLOQUET        CLOUDY    19  14  79 NW12G17   29.91R WCI   7
MCGREGOR       CLOUDY    23  18  80 NW12      29.94R WCI  12
$$
MNZ071>073-080-081-089-090-097-098-101600-
   Southwest Minnesota

CITY           SKY/WX    TMP DP  RH WIND       PRES   REMARKS
MONTEVIDEO     CLOUDY    28  21  74 N9        30.01S WCI  20
GRANITE FALLS  CLOUDY    30  24  77 NW12      30.02R WCI  21
CANBY          CLOUDY    32  26  80 W7        30.03R WCI  26
MARSHALL       CLOUDY    32  25  75 NW13      30.01R WCI  22
REDWOOD FALLS  CLEAR     30  20  66 NW10G21   29.99R WCI  21
OLIVIA         CLEAR     30  25  80 NW12      29.97F WCI  21
PIPESTONE      CLOUDY    28  25  86 NW8       29.99S WCI  20
WINDOM           N/A     30  18  59 NW16G23   29.98R WCI  19
WORTHINGTON    CLEAR     31  25  78 W12       30.00R WCI  22
JACKSON        SUNNY     32  25  74 MISG      29.98R
TRACY          CLOUDY    32  26  79 NW12      30.00R WCI  23
$$
MNZ065>067-074>077-082>085-091>093-101600-
   South Central Minnesota

CITY           SKY/WX    TMP DP  RH WIND       PRES   REMARKS
MANKATO        SUNNY     27  22  81 NW15      29.98R WCI  15
NEW ULM        CLEAR     27  21  80 NW15      29.98R WCI  15
ST JAMES       SUNNY     30  25  80 NW13G20   29.99R WCI  20
FAIRMONT       SUNNY     31  24  75 NW17G24   29.97R WCI  19
GLENCOE        CLOUDY    29  24  82 W9        29.95S WCI  20
FARIBAULT      CLOUDY    27  21  80 NW7       29.95R WCI  19
WASECA         CLOUDY    28  23  80 NW12      29.97R WCI  18
ALBERT LEA     SUNNY     27  21  80 NW8G17    29.93R WCI  18
$$
MNZ078>079-086>088-094>096-101600-
   Southeast Minnesota

CITY           SKY/WX    TMP DP  RH WIND       PRES   REMARKS
ROCHESTER      PTSUNNY   24  21  88 N15       29.91R WCI  11
RED WING       CLOUDY    25  18  74 CALM      29.93R
STANTON        CLOUDY    28  23  82 NW7       29.94R WCI  20
DODGE CENTER   CLOUDY    25  21  86 NW8       29.92R WCI  16
WINONA         PTSUNNY   28  23  80 NW10G16   29.94R WCI  19
AUSTIN         SUNNY     27  21  80 NW10G16   29.92R WCI  17
PRESTON        SUNNY     24  20  85 N12       29.91R WCI  12
$$
ABBREVIATIONS USED IN REMARKS
   TC - TEMPERATURES IN CELSIUS
  WCI - WIND CHILL INDEX
   HX - HEAT INDEX
  VSB - VISIBILITY
$$




USA.gov is the U.S. government's official web portal to all federal, state and local government web resources and services.